Aérodrome :
LOGIN :

S'inscrire | Disclaimer

   EN    FR    IT 

 










Légende :    VFR   VFR Marginal   IFR   IFR Intensif   IFR Très Intensif
Visi : 
Plafond : 
>= 8 km
>= 3000ft
5 à 8 km
1000 à 3000 ft
1500m à 5 km
500 à 1000 ft
800 à 1500m
200 à 500 ft
< 800m
< 200 ft
Symboles :   Orages  Brouillard  Fortes neiges  Fortes précipitations  Vent > 20 kt
SIGMETs :   Divers  Orages  Givrage  Turbulence  Onde Orograph.  Cendres Volcan.






- Altitude de l'aérodrome : 1345 ft
- Code IATA : FRZ


ETHF - Fritzlar

DERNIER METAR :
  • 210520Z 30002KT 6000 -DZ FEW005 OVC009 03/02 Q1011 GRN GRN TEMPO YLO

METARs EXPIRÉS :
  • 210420Z 31002KT 8000 OVC006 03/02 Q1011 YLO
  • 210320Z 31002KT 8000 OVC008 03/02 Q1012 GRN

TAF TAF ETHF
Valide du 21 à 06h jusqu'au 21 à 15h UTC


210520Z 2106/2115 VRB03KT 6000 NSW BKN008
TEMPO 2106/2115 VRB03KT 3000 -DZ OVC003
PROB30 2113/2115 VRB03KT 8000 NSW SCT015



MET'MAP, la Météo Aéronautique d'un coup d'oeil ! - Copyright ORBIFLY Décembre 2007 - Disclaimer

ORBIFLY MET'MAP TEAM :

Programmation & Développement : Alexandra Zaïnal
Conception & Développement : Baudouin d'Aumeries
Co-Programmation & Développement : Marc-Olivier Méhu
Soutien technique & logistique : Manuel Goepfert

Contact : metmap@orbifly.com




SOURCES & CREDITS :

   NOAA